Creek Data

    Home     View Charts     View Raw Data     Messages

ID Distance Battery Voltage Battery Current Internal Temp Internal Humidity External Temp Solar Input rssi snr Time Stamp Record
65489 15.0 3.87 14 42 49 43 4.5 -84 6 02/06/2026 07:45 AM 48281
65488 15.0 3.82 0 41 50 43 4.5 -87 7 02/06/2026 07:30 AM 48280
65487 15.0 3.87 -9 41 50 42 4.5 -88 8 02/06/2026 07:15 AM 48279
65486 15.0 3.82 -5 42 50 42 1.3 -85 8 02/06/2026 07:00 AM 48278
65485 15.0 3.82 -5 42 50 42 0.1 -77 8 02/06/2026 06:45 AM 48277
65484 15.0 3.82 -5 42 50 42 0 -76 9 02/06/2026 06:30 AM 48276
65483 15.0 3.82 -5 42 50 43 0 -76 9 02/06/2026 06:15 AM 48275
65482 15.0 3.88 -5 42 50 42 0 -76 8 02/06/2026 06:00 AM 48274
65481 15.0 3.82 -5 43 50 44 0 -76 8 02/06/2026 05:45 AM 48273
65480 15.0 3.82 -5 43 50 45 0 -76 8 02/06/2026 05:30 AM 48272
65479 15.0 3.88 -5 43 51 45 0 -76 8 02/06/2026 05:15 AM 48271
65478 15.0 3.82 -5 43 51 45 0 -76 8 02/06/2026 05:00 AM 48270
65477 15.0 3.82 -5 43 51 44 0 -76 7 02/06/2026 04:45 AM 48269
65476 15.0 3.82 -5 43 51 44 0 -76 8 02/06/2026 04:30 AM 48268
65475 15.0 3.82 -5 44 51 45 0 -77 8 02/06/2026 04:15 AM 48267
65474 15.0 3.88 -5 44 51 45 0 -76 8 02/06/2026 04:00 AM 48266
65473 15.0 3.82 -5 45 51 45 0 -76 8 02/06/2026 03:45 AM 48265
65472 15.0 3.88 -5 46 50 46 0 -77 8 02/06/2026 03:30 AM 48264
65471 15.0 3.82 -5 47 50 48 0 -76 8 02/06/2026 03:15 AM 48263
65470 15.0 3.82 -5 47 50 47 0 -76 8 02/06/2026 02:45 AM 48261
65469 15.0 3.82 -5 46 50 47 0 -76 8 02/06/2026 02:30 AM 48260
65468 15.0 3.88 -5 47 50 47 0 -76 8 02/06/2026 02:15 AM 48259
65467 15.0 3.82 -5 46 50 48 0 -76 8 02/06/2026 02:00 AM 48258
65466 15.0 3.88 -5 46 50 47 0 -76 8 02/06/2026 01:45 AM 48257
65465 15.0 3.83 -5 46 50 48 0 -76 8 02/06/2026 01:30 AM 48256